コワルスキー彗星

P/2014 U2 ( Kowalski )

English version
Home page
Updated on March 15, 2015

---------------------------------------------------------------------

・ プロフィール

発見日 2014年10月18日
発見光度 18.1等
発見者 R. A. Kowalski (Catalina Sky Survey)

・ 写真集

・ 軌道要素

Epoch 2014 Sept. 20.0 TT = JDT 2456920.5
T 2014 Oct. 7.14818 TT                                  MPCW
q   1.1642927            (2000.0)            P               Q
n   0.19625269     Peri.   35.24910     +0.85294028     -0.52193622
a   2.9326415      Node   356.18192     +0.44397853     +0.73409413
e   0.6029884      Incl.    7.49563     +0.27454678     +0.43438277
P   5.02
From 151 observations 2014 Oct. 18-2015 Jan. 18, mean residual 0".6.

・ 光度変化

        m1 = 19.0 + 5 logΔ + 10.0 log r(t - 30)

---------------------------------------------------------------------

軌道要素はM.P.E.C. 2015-B177に掲載されたものです。
光度グラフはComet for Windowsで作成したものです。

---------------------------------------------------------------------

Copyright(C) Seiichi Yoshida (comet@aerith.net). All rights reserved.